User: anonymous   Login
Location: Unspecified
(0.0000°N, 0.0000°E)
Time: 23:03:28
(UTC+00:00)
Language:

COSMOS 2569 (GLONASS - Orbit

View from above orbital plane
View from above orbital plane
View from above satellite
View from above satellite

Ground track
Ground track

The orbit is defined by the following mean orbital elements,

1 57517U          26143.85198882 +.00000000 +00000-0 +00000-0 0 00003
2 57517  65.2892  73.4407 0011626 296.5431  63.3318  2.13103740    05
Epoch (UTC): 23 May 2026 20:26:51
Eccentricity: 0.0011626
inclination: 65.2892°
perigee height: 19100 km
apogee height: 19159 km
right ascension of ascending node: 73.4407°
argument of perigee: 296.5431°
revolutions per day: 2.13103740
mean anomaly at epoch: 63.3318°

The dashed part of the orbit path shows where the satellite is in the earth's shadow,  

DLR